Location: Limerick
(52.6800°N, 8.6400°W)
Time: 00:35:39
(UTC+01:00)

Daily predictions for brighter satellites

Satellite Brightness Start Highest point End
(mag) Time Altitude Azimuth Time Altitude Azimuth Time Altitude Azimuth
Cosmos 2369 Rocket 4.4 00:00:02 10° NNW 00:04:00 19° NNE 00:08:00 10° ENE
Cosmos 1536 2.7 00:00:12 10° N 00:04:16 72° ENE 00:04:29 70° ESE
Iridium 4 Rocket 2.8 00:00:07 10° N 00:04:23 87° W 00:04:52 69° S
Okean 3 4.3 00:05:33 37° E 00:05:33 37° E 00:09:08 10° NNE
H-2A R/B 3.6 00:02:48 17° SW 00:05:26 26° W 00:09:37 10° NW
Cosmos 1975 Rocket 4.5 00:06:41 25° E 00:06:41 25° E 00:10:10 10° NNE
Cosmos 2322 Rocket 4.0 00:02:20 10° WSW 00:07:20 32° NW 00:12:24 10° NNE
Cosmos 1745 Rocket 4.0 00:01:54 10° NNW 00:08:14 81° W 00:10:41 40° S
Spot 4 4.1 00:08:01 46° SSW 00:09:11 61° WSW 00:13:56 10° NNW
Terra 2.9 00:09:07 28° SW 00:10:45 36° W 00:15:09 10° NNW
CZ-4 R/B 3.8 00:08:41 10° NNE 00:13:26 80° WNW 00:14:50 47° SSW
Cosmos 2298 Rocket 4.0 00:10:39 10° NNW 00:16:02 77° ENE 00:17:19 52° SE
CZ-4C R/B 3.7 00:16:26 51° WSW 00:16:32 51° WSW 00:20:11 10° NNW
Cosmos 1844 4.3 00:11:08 10° NW 00:16:33 46° WSW 00:18:03 37° SSW
Cosmos 1300 Rocket 3.6 00:13:30 10° NNW 00:17:48 64° W 00:18:19 58° SW
Cosmos 2360 Rocket 3.0 00:12:33 10° SW 00:18:04 51° NW 00:23:37 10° NNE
SL-24 DEB 4.1 00:19:24 65° SE 00:20:01 77° E 00:24:41 10° N
Cosmos 2322 4.4 00:17:31 10° SW 00:23:07 53° NW 00:28:43 10° NNE
Cosmos 1980 4.0 00:23:07 44° ESE 00:23:29 45° ESE 00:28:50 10° NE
ATLAS 3B R/B 3.4 00:17:22 10° NW 00:24:12 50° NNE 00:29:36 15° E
Geosat 4.4 00:19:30 10° NNE 00:24:30 63° NW 00:27:39 23° SW
CZ-4C R/B 2.8 00:19:45 10° NW 00:26:36 72° SW 00:29:24 42° SSE
SL-16 R/B 3.6 00:27:46 22° E 00:27:46 22° E 00:31:46 10° NE
Timation 1 Rocket 4.3 00:25:44 10° NW 00:31:44 76° WSW 00:33:14 52° S
Meteor 2-11 Rocket 4.4 00:31:14 45° SSW 00:33:18 86° W 00:39:27 10° N
SL-16 R/B 4.4 00:30:00 10° W 00:34:38 25° NW 00:39:18 10° NNE
Cosmos 1570 Rocket 3.9 00:35:45 52° SSW 00:37:04 87° WNW 00:42:25 10° NNE
CZ-4B R/B 3.8 00:35:51 10° N 00:40:30 55° WNW 00:41:59 38° WSW
Cosmos 2208 Rocket 4.0 00:39:23 53° SSW 00:40:41 88° WNW 00:46:04 10° NNE
Cosmos 2333 Rocket 2.1 00:40:59 55° S 00:42:10 72° ESE 00:47:58 10° NE
CZ-2C R/B 2.8 00:42:25 61° ESE 00:43:04 70° ENE 00:47:58 10° NNW
Cosmos 1606 4.5 00:42:59 22° W 00:43:59 25° WNW 00:47:12 10° N
Cosmos 2333 4.5 00:41:52 30° SW 00:44:48 68° NW 00:50:36 10° NNE
Cosmos 1378 Rocket 3.4 00:47:07 84° SW 00:47:14 87° W 00:51:42 10° N
Cosmos 1544 Rocket 3.8 00:44:30 10° N 00:48:56 58° ENE 00:49:04 58° E
Cosmos 2278 Rocket 2.7 00:44:22 10° NW 00:49:45 45° WSW 00:50:37 42° SW
Cosmos 2315 Rocket 4.0 00:48:58 51° SSE 00:50:27 68° E 00:56:39 10° NNE
Cosmos 1689 Rocket 4.4 00:52:32 22° NE 00:52:32 22° NE 00:54:38 10° NNE
Cosmos 2237 Rocket 2.2 00:51:15 59° SSE 00:52:02 66° ESE 00:57:42 10° NE
Cosmos 2150 Rocket 4.1 00:46:50 10° NNW 00:52:14 67° WSW 00:53:02 58° SSW
Meteor 1-27 Rocket 4.3 00:54:42 33° SW 00:56:56 52° WNW 01:02:25 10° N
Cosmos 1937 Rocket 3.5 00:53:15 10° NNW 00:58:29 62° WSW 00:59:02 58° SW
Cosmos 1844 Rocket 4.5 00:57:40 10° WNW 01:01:15 18° W 01:02:24 17° WSW
Cosmos 371 Rocket 4.1 01:07:54 38° E 01:07:54 38° E 01:12:06 10° NE
Okean 1 Rocket 4.4 01:06:34 10° NNW 01:10:22 28° W 01:10:41 28° W
CZ-2C R/B 2.6 01:06:36 10° NNE 01:12:04 71° ESE 01:12:53 61° SSE
Cosmos 1346 Rocket 4.4 01:12:15 26° W 01:12:55 27° WNW 01:16:20 10° N
Cosmos 1975 3.0 01:10:42 10° N 01:14:16 69° N 01:14:16 69° N
Cosmos 1898 Rocket 4.4 01:10:18 10° NW 01:14:59 35° WSW 01:15:17 35° WSW
CZ-4B R/B 2.7 01:16:16 38° NNE 01:16:16 38° NNE 01:18:48 10° N
Cosmos 990 Rocket 4.2 01:10:55 10° NNW 01:15:55 53° WSW 01:16:11 52° WSW
Cosmos 1455 Rocket 3.0 01:14:03 10° NNW 01:18:30 87° NW 01:18:30 87° NW
Cosmos 1500 3.6 01:14:40 10° NNW 01:17:59 62° NNW 01:17:59 62° NNW
NOSS 0 Rocket 3.9 01:17:11 44° SW 01:19:18 80° NW 01:25:30 10° NNE
Cosmos 2184 Rocket 4.0 01:13:51 10° N 01:20:14 78° ENE 01:21:57 51° SSE
Cosmos 1340 3.2 01:23:18 58° NNE 01:23:18 58° NNE 01:26:25 10° NNE
Cosmos 1125 Rocket 3.6 01:18:47 10° NNW 01:24:09 74° ENE 01:25:08 58° SE
NOSS 3-1 (C) 3.5 01:21:39 39° SW 01:24:09 85° NW 01:31:04 10° NE
Cosmos 2219 Rocket 2.7 01:22:00 30° WSW 01:24:32 54° NW 01:30:05 10° NNE
CENTAUR R/B 4.3 01:18:09 10° WNW 01:24:43 37° N 01:31:59 10° ENE
Cosmos 332 Rocket 3.8 01:25:36 66° ESE 01:25:36 66° ESE 01:30:23 10° NNE
ALOS 2 3.2 01:26:48 44° W 01:26:48 44° W 01:30:50 10° NNW
USA 229 DEB 4.3 01:20:25 10° WSW 01:27:11 55° NNW 01:34:07 10° NE
USA 229 4.3 01:20:31 10° WSW 01:27:16 56° NNW 01:34:12 10° NE
Cosmos 2327 Rocket 4.4 01:22:48 10° N 01:28:58 84° E 01:30:24 55° SSE
H-2A R/B 4.1 01:27:23 10° NE 01:29:54 23° ENE 01:29:54 23° ENE
SL-08 ROCKET BODY 4.4 01:29:44 10° NNW 01:35:37 71° W 01:36:47 56° SSW
USA 267 3.3 01:30:56 10° ESE 01:37:29 79° NNE 01:44:03 10° WNW
NOSS 3-1 (A) 3.4 01:35:48 45° SW 01:37:54 89° NW 01:44:49 10° NE
Meteor 1-12 Rocket 4.4 01:32:50 10° NNW 01:38:37 61° W 01:39:41 52° SW
Cosmos 2297 4.3 01:34:18 10° NW 01:39:37 40° WSW 01:39:54 40° WSW
ATLAS 2AS CENTAUR R/B 3.5 01:38:16 37° SE 01:39:55 41° ESE 01:47:21 10° NE
USA 81 4.4 01:40:17 47° WSW 01:41:15 53° WNW 01:46:27 10° N
Cosmos 1763 Rocket 3.3 01:41:56 71° S 01:42:29 82° ESE 01:47:47 10° NNE
CZ-4C R/B 4.3 01:44:04 36° NW 01:44:04 36° NW 01:46:27 10° NNW
Cosmos 1975 Rocket 3.8 01:43:49 42° W 01:44:09 43° WNW 01:48:27 10° N
COSMOS 2428 4.3 01:41:17 10° WSW 01:46:18 30° NW 01:51:20 10° NNE
Spot 2 4.3 01:44:21 10° N 01:48:32 60° WNW 01:48:41 60° W
Cosmos 1814 Rocket 4.0 01:47:43 60° WSW 01:48:33 72° WNW 01:53:42 10° NNE
Cosmos 1610 Rocket 4.5 01:42:45 10° N 01:49:13 88° E 01:50:57 52° S
Cosmos 2369 Rocket 2.6 01:43:42 10° NNW 01:49:16 59° NE 01:51:39 33° ESE
NOSS 3-2 (A) 4.4 01:42:18 10° NW 01:49:21 60° NNE 01:57:09 10° ESE
Cosmos 372 Rocket 3.9 01:44:56 10° NNW 01:50:15 90° E 01:50:59 67° SSE
Cosmos 1812 3.8 01:55:44 37° WNW 01:55:44 37° WNW 01:59:09 10° N
Cosmos 2074 Rocket 4.1 01:49:28 10° NNW 01:55:36 62° W 01:56:57 50° SW
Cosmos 1461 4.4 01:53:55 10° NNW 01:57:38 33° NE 02:00:41 14° E
Cosmos 2285 Rocket 4.1 01:56:02 46° SW 01:58:05 75° WNW 02:04:30 10° NNE
Cosmos 2154 Rocket 4.0 01:52:37 10° N 01:58:55 82° E 02:00:43 50° SSE
Cosmos 1238 Rocket 3.7 01:59:21 50° ESE 02:00:01 55° E 02:05:35 10° NNE
Okean 1 3.9 02:01:42 51° WNW 02:01:42 51° WNW 02:05:24 10° N
Cosmos 1743 3.4 02:00:03 10° NNW 02:03:04 47° NW 02:03:04 47° NW
TIMED 4.4 02:00:10 10° NNW 02:04:35 82° ENE 02:04:36 82° ENE
Cosmos 1536 Rocket 3.5 02:04:53 74° W 02:04:54 74° WNW 02:09:19 10° N
ARGOS Delta rocket 3.8 02:03:05 10° N 02:07:28 60° WNW 02:07:44 58° W
SL-16 R/B 2.2 02:09:38 53° SW 02:11:00 79° WNW 02:16:45 10° NNE
ATLAS CENTAUR R/B 1.7 02:11:47 58° E 02:11:47 58° E 02:15:13 10° NE
Landsat 5 4.1 02:12:45 42° WNW 02:12:45 42° WNW 02:16:08 10° NNW
CZ-4C R/B 4.2 02:09:14 10° WNW 02:14:26 22° WSW 02:14:34 22° WSW
ATLAS 3B R/B 2.6 02:08:23 10° NW 02:15:11 63° SW 02:16:49 48° S
Cosmos 1943 Rocket 2.8 02:11:15 10° NNW 02:16:51 54° NE 02:20:41 20° ESE
Cosmos 1666 3.3 02:13:45 10° NNW 02:16:56 52° NW 02:16:56 52° NW
Cosmos 1606 Rocket 3.9 02:13:47 10° N 02:18:12 59° ENE 02:18:44 54° ESE
Cosmos 841 Rocket 3.7 02:22:02 50° WSW 02:23:06 63° WNW 02:28:16 10° NNE
Cosmos 1689 Rocket 4.5 02:25:22 20° NW 02:25:22 20° NW 02:26:47 10° NW
Meteor 2-9 Rocket 4.0 02:20:01 10° NNW 02:25:24 74° W 02:26:16 60° SSW
USA 238 DEB 3.7 02:19:52 10° NW 02:26:54 70° SW 02:29:57 36° SSE
Cosmos 1607 4.1 02:20:49 10° NW 02:26:55 51° WSW 02:27:44 48° SW
Cosmos 2333 Rocket 3.7 02:22:56 15° W 02:26:59 31° NW 02:32:06 10° NNE
USA 238 3.7 02:19:57 10° NW 02:27:00 70° SW 02:30:06 36° SSE
SL-24 R/B 4.0 02:27:03 73° SE 02:27:27 84° ENE 02:32:03 10° NNW
Cosmos 2228 4.1 02:23:34 10° N 02:27:46 41° ENE 02:29:03 32° ESE
Cosmos 540 Rocket 3.3 02:27:09 64° S 02:27:53 77° ESE 02:33:03 10° NNE
NOSS 2-3 (C) 4.0 02:28:23 57° SSE 02:29:02 62° SE 02:34:53 10° NE
Helios 1A Rocket 3.4 02:30:25 10° NNE 02:34:22 47° E 02:34:31 47° ESE
Cosmos 405 Rocket 2.8 02:34:48 71° NNE 02:34:48 71° NNE 02:38:10 10° NNE
Cosmos 44 Rocket 3.5 02:31:45 10° NW 02:36:31 67° NE 02:39:10 25° ESE
Cosmos 2237 Rocket 3.6 02:33:02 18° W 02:36:32 33° NW 02:41:40 10° NNE
Meteor 1-13 Rocket 4.4 02:35:54 48° SW 02:37:29 68° WNW 02:43:25 10° N
Cosmos 962 Rocket 4.5 02:31:14 10° NNW 02:37:36 74° W 02:39:35 46° SSW
SL-16 R/B 3.7 02:35:01 10° SE 02:40:39 39° ENE 02:46:18 10° N
Cosmos 1726 Rocket 3.5 02:37:01 10° N 02:41:30 82° ENE 02:42:02 68° SSE
Cosmos 1437 3.7 02:43:12 45° NNW 02:43:12 45° NNW 02:45:38 10° N
USA 215 3.3 02:38:17 10° ENE 02:44:44 58° SE 02:46:47 42° SSW
Cosmos 2218 Rocket 4.1 02:38:31 10° N 02:44:48 73° ENE 02:47:41 34° SSE
Cosmos 2181 Rocket 4.1 02:43:54 42° S 02:46:16 78° E 02:52:45 10° NNE
Cosmos 405 3.3 02:43:37 10° NNW 02:46:42 61° NNW 02:46:42 61° NNW
Meteor 2-4 Rocket 3.5 02:46:05 54° SSW 02:47:21 80° WNW 02:52:49 10° NNE
Cosmos 371 Rocket 4.3 02:46:33 31° W 02:48:02 38° NW 02:52:37 10° NNE
CZ-4B R/B 3.9 02:49:52 13° WNW 02:49:52 13° WNW 02:50:42 10° NW
Uosat 12 SS-18 rocket 4.2 02:49:34 61° SW 02:50:25 89° SE 02:55:51 10° NE
Okean 1-7 Rocket 3.5 02:50:31 66° WSW 02:50:54 72° WNW 02:55:19 10° N
Cosmos 2366 rocket 4.1 02:45:25 10° N 02:51:47 73° ENE 02:55:01 31° SSE
CZ-2C R/B 4.3 02:47:34 10° N 02:51:55 25° WNW 02:54:24 18° W
JB-3 4.3 02:49:58 10° N 02:53:51 66° WNW 02:53:54 66° WNW
Cosmos 1025 Rocket 2.9 02:54:05 69° SW 02:54:30 77° WNW 02:58:53 10° N
Okean 2 3.2 02:56:02 75° S 02:56:22 86° E 03:00:33 10° NNE
NOSS 3-2 (C) 3.9 02:50:47 10° NW 02:58:04 89° NE 03:06:05 10° SE
Cosmos 783 Rocket 4.4 02:59:32 52° SSW 03:00:50 86° WNW 03:06:06 10° NNE
NOSS 2-3 (D) 4.0 03:02:06 47° SW 03:03:39 88° NW 03:09:45 10° NE
Meteor 1-4 Rocket 4.4 03:00:22 10° N 03:03:45 29° ENE 03:06:03 16° ESE
Cosmos 304 Rocket 3.9 03:02:48 51° WSW 03:03:52 68° WNW 03:08:42 10° NNE
Cosmos 1656 Rocket 4.2 02:58:36 10° NNW 03:03:58 56° NE 03:09:16 10° SE
EXPRESS MD2 4.4 02:54:35 10° WSW 03:04:24 70° S 03:08:53 10° E
SL-8 Rocket 3.9 02:59:02 10° NNW 03:05:12 73° W 03:07:32 40° S
Cosmos 2058 Rocket 2.9 03:00:53 10° NNW 03:05:18 79° W 03:05:56 63° SSW
COSMOS 2455 3.2 02:59:58 10° NW 03:06:00 67° NE 03:11:59 10° SE
H-2A R/B 3.1 03:02:41 10° N 03:06:16 37° WNW 03:06:31 37° WNW
Cosmos 1943 3.3 03:07:17 41° S 03:09:08 64° ESE 03:14:44 10° NE
Cosmos 2219 Rocket 4.5 03:05:57 10° WNW 03:09:49 18° NNW 03:13:42 10° NNE
Cosmos 2263 4.3 03:04:14 10° NW 03:09:55 58° WSW 03:11:37 42° SSW
Cosmos 1437 Rocket 2.7 03:07:44 10° NNW 03:11:37 66° W 03:11:37 66° W
ARIANE 5 R/B 4.3 03:10:37 10° NE 03:14:59 26° E 03:18:40 13° SE
Meteor 2-21 4.4 03:10:15 10° NNW 03:16:28 85° W 03:19:32 32° S
CENTAUR R/B 3.5 03:09:23 10° NW 03:16:48 62° NE 03:24:58 10° ESE
Cosmos 1346 4.3 03:17:44 34° NNW 03:17:44 34° NNW 03:19:40 10° N
Cosmos 1538 Rocket 4.1 03:17:22 41° S 03:19:06 68° ESE 03:24:16 10° NNE
USA 267 3.3 03:14:27 10° SE 03:20:47 51° SW 03:27:10 10° WNW
UNK 4.3 03:21:43 19° SE 03:24:55 56° ENE 03:29:25 10° N
ADEOS Rocket 4.2 03:20:47 10° NNE 03:26:07 35° E 03:31:08 13° SSE
Cosmos 1626 Rocket 4.3 03:24:20 29° SSE 03:26:10 47° E 03:30:24 10° NNE
Cosmos 1441 Rocket 3.5 03:26:04 49° W 03:26:29 52° WNW 03:30:18 10° N
SL-08 R/B 3.2 03:25:05 42° S 03:26:38 74° WSW 03:31:26 10° NNW
Cosmos 1892 Rocket 3.6 03:26:45 49° SW 03:27:49 70° WNW 03:32:20 10° N
Iridium 2 3.6 03:24:02 10° N 03:27:54 72° W 03:28:24 62° SW
Cosmos 1603 4.1 03:26:23 32° WSW 03:28:54 58° NW 03:34:35 10° NNE
ATLAS 2AS CENTAUR R/B 3.2 03:25:40 26° WSW 03:30:37 75° NW 03:38:49 10° NE
Cosmos 2369 Rocket 3.0 03:28:09 10° NW 03:33:00 31° WSW 03:33:25 30° WSW
NPP 3.7 03:28:30 10° NNE 03:33:55 75° ESE 03:36:31 32° S
Cosmos 44 2.9 03:30:25 10° NW 03:34:46 62° SW 03:36:17 37° SSE
Genesis I 3.2 03:31:32 10° NW 03:35:31 84° NE 03:39:28 10° SE
Cosmos 724 4.2 03:29:26 10° NW 03:35:35 72° SW 03:41:32 10° SSE
Cosmos 1461 2.9 03:32:59 10° NW 03:36:57 50° SW 03:37:03 50° SW
NOSS 3-2 (A) 4.0 03:33:18 10° NW 03:40:25 54° SW 03:48:10 10° SSE
PSLV R/B 4.5 03:36:26 10° N 03:40:52 41° WNW 03:42:21 31° WSW
RESURS DK-1 4.5 03:40:27 13° SE 03:42:35 19° ESE 03:45:32 10° ENE
Nadezhda 3 Rocket 4.4 03:39:13 19° SSE 03:43:44 60° E 03:49:59 10° NNE
Cosmos 1805 4.3 03:41:39 10° N 03:45:28 44° ENE 03:48:57 12° SE
Meteor 1-22 Rocket 4.1 03:40:16 10° NNW 03:45:58 82° W 03:49:35 22° S
Cosmos 1602 Rocket 3.8 03:44:01 32° S 03:46:03 69° E 03:50:29 10° NNE
Gbstr 26 Del rocket 4.4 03:40:07 19° WSW 03:46:20 79° SSE 03:53:40 10° E
Cosmos 1271 Rocket 4.0 03:46:29 10° N 03:50:04 39° ENE 03:53:36 10° SE
ATLAS CENTAUR R/B 2.9 03:48:03 16° W 03:50:31 28° NNW 03:53:59 10° NNE
Resurs 1-4 Rocket 2.8 03:45:53 10° NNE 03:51:00 50° E 03:54:47 18° S
CZ-2D R/B 2.7 03:48:27 10° NNE 03:53:41 51° E 03:57:32 17° S
COSMOS 2406 4.5 03:51:32 14° SSE 03:55:43 34° ESE 04:00:51 10° NE
SL-16 R/B 4.0 03:51:32 10° W 03:56:04 24° NW 04:00:36 10° NNE
Cosmos 1766 3.2 03:54:14 10° NNW 03:58:15 78° W 04:00:08 30° S
Cosmos 773 Rocket 3.9 03:56:41 31° SSW 03:59:15 83° WNW 04:04:29 10° NNE
Cosmos 374 Rocket 4.1 03:56:22 10° NW 04:00:20 88° SW 04:04:07 10° SE
Cosmos 1943 Rocket 2.8 03:55:20 10° NW 04:00:25 34° WSW 04:02:09 28° SW
Cosmos 1842 4.0 04:01:20 20° SSE 04:03:45 47° E 04:07:31 10° NNE
ATLAS 3B R/B 4.2 04:00:56 10° WNW 04:04:01 15° W 04:04:01 15° W
Cosmos 2228 4.2 04:01:29 10° NNW 04:05:11 27° W 04:05:54 25° WSW
Cosmos 1066 Rocket 4.1 04:04:41 27° SSW 04:07:38 72° WNW 04:13:01 10° N
MOZ.5/SAFIR/RUBIN 5/SL-8 4.2 04:04:42 10° SSE 04:09:18 63° ENE 04:13:58 10° N
Helios 1A Rocket 4.5 04:06:09 10° N 04:09:23 23° WNW 04:10:50 19° W
Cosmos 1624 Rocket 4.0 04:08:11 10° NNW 04:13:27 88° ENE 04:18:40 10° SSE
Spot 4 Rocket 4.1 04:08:41 10° NNE 04:13:54 84° ESE 04:17:30 20° SSW
Cosmos 1544 3.0 04:10:45 10° N 04:14:29 89° W 04:17:03 19° S
Cosmos 292 Rocket 4.0 04:12:10 27° SW 04:14:40 61° WNW 04:19:31 10° NNE
AQUA 4.0 04:12:06 10° N 04:16:48 59° WNW 04:19:26 25° SW
Cosmos 44 Rocket 4.2 04:13:49 10° WNW 04:17:40 25° WSW 04:17:48 25° WSW
DNEPR-1 R/B 4.1 04:13:44 10° NW 04:18:00 58° NE 04:22:13 10° ESE
Cosmos 1953 2.4 04:16:33 10° N 04:20:33 75° ENE 04:24:33 10° SSE
ERS-1 4.4 04:16:02 10° NNE 04:21:02 87° WNW 04:24:30 20° SSW
ADEOS 3.6 04:16:51 10° NNE 04:22:08 83° ESE 04:26:10 17° SSW
USA 32 4.5 04:17:25 10° S 04:22:34 61° E 04:27:46 10° NNE
SL-16 R/B 2.7 04:19:15 15° S 04:24:10 51° W 04:30:12 10° NNW
Cosmos 1821 Rocket 3.9 04:20:08 10° NNW 04:26:13 72° W 04:32:18 10° S
Abrixas 4.1 04:26:17 19° SSE 04:26:22 19° SSE 04:28:30 10° ESE
Cosmos 2056 Rocket 3.5 04:21:01 10° NNW 04:26:26 81° WSW 04:31:43 10° SSE
Cosmos 389 Rocket 3.9 04:23:37 10° N 04:27:08 41° ENE 04:30:35 10° SE
USA 215 3.4 04:21:25 10° ENE 04:27:57 75° NNW 04:34:07 12° W
Cosmos 1758 Rocket 4.4 04:24:33 10° SSE 04:28:46 48° E 04:32:58 10° NNE
IRS-1C 4.3 04:24:01 10° N 04:29:16 58° WNW 04:32:52 20° SW
Cosmos 1812 Rocket 4.2 04:25:24 10° NNW 04:29:27 37° W 04:31:36 23° SW
Aureole 1 Rocket 3.2 04:26:50 21° SSW 04:30:26 84° WNW 04:34:36 10° NNE
Cosmos 1470 3.6 04:26:48 10° N 04:30:37 52° ENE 04:34:27 10° SSE
Cosmos-2242 3.8 04:27:45 10° N 04:32:06 54° ENE 04:36:25 10° SSE
Cosmos 1758 3.3 04:31:11 10° NNW 04:35:18 71° W 04:39:20 10° S
Cosmos 1680 Rocket 3.5 04:33:12 19° SSW 04:37:00 80° WNW 04:42:18 10° NNE
Meteor 1-4 Rocket 3.6 04:35:33 10° NNW 04:38:54 29° W 04:40:20 22° SW
IRS-1D 3.6 04:33:46 10° NNE 04:38:54 72° WNW 04:43:07 16° SSW
Meteor 1-21 4.2 04:34:56 16° SSW 04:39:30 77° WNW 04:45:08 10° N
Landsat 4 4.0 04:36:29 10° SSE 04:40:12 70° ENE 04:43:57 10° N
UNKNOWN OBJECT B 3.0 04:37:25 10° NNE 04:41:23 72° ESE 04:45:05 12° S
Cosmos 921 Rocket 3.0 04:38:34 10° NNW 04:43:02 71° WSW 04:47:30 10° SSE
Cosmos 839 Rocket 4.0 04:37:56 10° NW 04:44:08 76° SW 04:51:05 10° SSE
Meteor 2-8 Rocket 4.5 04:38:57 14° SSW 04:44:15 72° WNW 04:50:26 10° N
MOS 1 Rocket 3.9 04:41:32 10° NNE 04:45:44 50° E 04:50:00 10° S
Cosmos 1605 Rocket 4.0 04:40:21 10° N 04:46:40 88° W 04:52:51 10° S
GEOS 3 Rocket 3.7 04:41:38 10° NE 04:46:57 89° NW 04:51:16 16° SW
Cosmos 1656 Rocket 4.3 04:42:35 10° NW 04:47:17 31° WSW 04:51:58 10° SSW
Cosmos 1953 Rocket 3.7 04:45:23 10° S 04:49:48 80° E 04:54:18 10° NNE
BREEZE-M DEB (TANK) 4.3 04:47:11 17° WSW 04:50:47 64° SSE 05:11:00 10° E
COSMOS 2455 3.5 04:46:21 10° NW 04:51:36 32° WSW 04:56:48 10° S
Cosmos 1934 Rocket 4.1 04:46:14 10° NNW 04:52:23 61° W 04:58:34 10° S
Cosmos 1943 4.3 04:49:05 13° WSW 04:53:36 33° NW 04:58:42 10° NNE
ARIANE 5 R/B 2.8 04:49:19 10° N 04:54:28 59° WNW 04:59:00 13° SW
Orbus 7S? 2.9 04:50:23 10° WNW 04:54:53 62° SW 04:57:35 10° SE
OPS 6432 4.2 04:53:39 20° WSW 04:55:40 71° NW 04:58:43 10° NE
USA 161 1.8 04:55:50 12° S 04:58:30 44° W 05:01:19 10° NNW
ADEOS II 3.5 04:56:14 10° NNE 05:01:07 37° E 05:05:58 10° SSE
Cosmos 1452 Rocket 3.5 04:56:23 10° NNW 05:01:42 89° ENE 05:06:57 10° SSE
Cosmos 2278 3.8 04:59:05 10° NNW 05:04:52 89° ENE 05:10:36 10° SSE
USA 267 4.5 05:00:58 10° SSW 05:04:55 17° WSW 05:08:55 10° W
Cosmos 1697 Rocket 3.6 05:00:34 10° NNW 05:06:07 54° NE 05:11:36 10° SE
CENTAUR R/B 3.2 05:00:13 10° NW 05:07:41 55° SW 05:15:46 10° SSE
Lacrosse 5 rocket 3.4 05:04:12 10° S 05:07:59 24° SE 05:11:44 10° ENE
Okean O Rocket 2.9 05:06:49 10° NNE 05:11:05 42° E 05:15:17 10° S
Cosmos 2369 3.7 05:05:42 10° NNW 05:11:29 85° WSW 05:17:14 10° SSE
CZ-2D R/B 3.4 05:07:32 10° N 05:11:41 69° WNW 05:15:41 10° SSW
ADEOS Rocket 3.3 05:06:18 10° N 05:11:51 51° WNW 05:17:55 10° SW
Cosmos 1825 Rocket 4.0 05:09:47 11° SSW 05:13:54 47° WNW 05:18:11 10° N
SL-27 R/B 2.5 05:11:45 11° SSW 05:15:06 72° WNW 05:18:45 10° NNE
Cosmos 2100 Rocket 4.3 05:09:23 10° N 05:15:40 72° ENE 05:21:49 10° SSE
NOSS 8 (A) 4.4 05:15:00 13° SW 05:17:57 85° NW 05:21:45 10° NE
RESURS DK-1 2.5 05:16:22 11° SW 05:20:14 63° NW 05:24:23 10° NNE
NOSS 3-4 (A) 3.7 05:14:18 11° WSW 05:20:25 71° NW 05:27:07 10° NE
Cosmos 1733 3.5 05:16:48 10° NNW 05:20:29 47° W 05:24:08 10° SSW
NOSS 3-4 (C) 3.7 05:14:23 11° WSW 05:20:31 71° NW 05:27:13 10° NE
Cosmos 1420 Rocket 4.1 05:15:15 10° NNW 05:20:37 86° ENE 05:25:57 10° SSE
EXPRESS MD2 4.0 05:16:46 10° W 05:22:15 38° SSW 05:25:15 10° SE
ATLAS 2AS CENTAUR R/B 4.1 05:15:18 10° W 05:22:52 42° NNW 05:30:30 10° NE
Cosmos 1271 Rocket 4.0 05:23:01 10° NW 05:25:53 21° W 05:28:44 10° SW
Cosmos 2173 Rocket 4.3 05:20:13 10° N 05:26:36 79° E 05:32:51 10° SSE
ATLAS CENTAUR R/B 3.8 05:28:21 10° NW 05:30:41 15° N 05:32:56 10° NNE
Resurs 1-4 Rocket 3.1 05:26:03 10° N 05:30:41 32° WNW 05:35:19 10° WSW
Cosmos 2061 Rocket 4.2 05:27:07 10° N 05:33:26 82° E 05:39:40 10° SSE
CZ-2D R/B 3.1 05:28:53 10° N 05:33:34 32° WNW 05:38:11 10° WSW
Gbstr 26 Del rocket 4.4 05:25:57 10° W 05:33:54 81° S 05:40:42 10° ESE
Cosmos 2098 Rocket 3.2 05:33:08 10° NNW 05:35:59 28° W 05:38:33 10° SSW
COSMOS 2487 3.7 05:32:43 10° S 05:36:06 42° ESE 05:39:31 10° NE
EO 1 Del DPAF 3.3 05:32:19 10° SSE 05:36:11 86° WSW 05:40:05 10° NNW
Cosmos 1980 Rocket 3.0 05:33:07 10° NNW 05:38:46 58° NE 05:44:22 10° SE
COSMOS 2406 3.6 05:34:11 10° SW 05:39:50 55° NW 05:45:31 10° NNE
NOSS 2-2 (C) 4.1 05:35:43 10° SSW 05:39:51 61° SE 05:44:51 10° NE
Cosmos 2082 Rocket 3.7 05:35:14 10° S 05:40:25 37° ESE 05:45:37 10° NE
CZ-4B R/B 3.7 05:35:22 10° NNE 05:40:48 64° ESE 05:46:05 10° S
